User: anonymous   Login
Location: Unspecified
(0.0000°N, 0.0000°E)
Time: 15:07:52
(UTC+00:00)
Language:

KORONAS-FOTON - Orbit

View from above orbital plane
View from above orbital plane
View from above satellite
View from above satellite

Ground track
Ground track

The orbit data is extracted from the following two-line orbital elements,

1 33504U 09003A   14295.49923263  .00005149  00000-0  30307-3 0  1612
2 33504 082.4423 113.8939 0020312 210.0114 204.4371 15.11259195314942
Epoch (UTC): 22 October 2014 11:58:53
Eccentricity: 0.0020312
inclination: 82.4423°
perigee height: 518 km
apogee height: 546 km
right ascension of ascending node: 113.8939°
argument of perigee: 210.0114°
revolutions per day: 15.11259195
mean anomaly at epoch: 204.4371°
orbit number at epoch: 31494

The dashed part of the orbit path shows where the satellite is in the earth's shadow,  

DLR